This is the latest recevied weather packets stored in our database for station/object 9W2CHF-4. If no packets are shown the sender has not sent any weather packets the latest 10 day(s).
| Time | Temp. | Humidity | Pressure | Rain* | Wind** | Luminosity | Snow |
|---|---|---|---|---|---|---|---|
| 1777706606 | 34.44° C | 71% | 1008 hPa | - | - | - | - |
| 1777705706 | 33.89° C | 73% | 1008 hPa | - | - | - | - |
| 1777704806 | 33.89° C | 73% | 1008.5 hPa | - | - | - | - |
| 1777703906 | 33.89° C | 75% | 1008.6 hPa | - | - | - | - |
| 1777703006 | 33.33° C | 76% | 1008.9 hPa | - | - | - | - |
| 1777702106 | 33.33° C | 76% | 1009.3 hPa | - | - | - | - |
| 1777701206 | 33.33° C | 77% | 1009.6 hPa | - | - | - | - |
| 1777700306 | 33.89° C | 76% | 1009.9 hPa | - | - | - | - |
| 1777699406 | 33.33° C | 76% | 1010 hPa | - | - | - | - |
| 1777698506 | 33.89° C | 75% | 1010.3 hPa | - | - | - | - |
| 1777697606 | 33.33° C | 75% | 1010.6 hPa | - | - | - | - |
| 1777696706 | 33.33° C | 80% | 1010.9 hPa | - | - | - | - |
| 1777695806 | 32.78° C | 83% | 1011.2 hPa | - | - | - | - |
| 1777694906 | 32.78° C | 84% | 1011.4 hPa | - | - | - | - |
| 1777694006 | 32.78° C | 83% | 1011.5 hPa | - | - | - | - |
| 1777693106 | 33.33° C | 82% | 1011.8 hPa | - | - | - | - |
| 1777692205 | 32.78° C | 82% | 1011.7 hPa | - | - | - | - |
| 1777691305 | 32.78° C | 82% | 1011.5 hPa | - | - | - | - |
| 1777690404 | 33.33° C | 81% | 1011.5 hPa | - | - | - | - |
| 1777689504 | 32.78° C | 82% | 1011.4 hPa | - | - | - | - |
| 1777688604 | 32.78° C | 82% | 1011.5 hPa | - | - | - | - |
| 1777687705 | 32.78° C | 82% | 1011.5 hPa | - | - | - | - |
| 1777686804 | 32.78° C | 83% | 1011.5 hPa | - | - | - | - |
| 1777685904 | 32.78° C | 84% | 1011.4 hPa | - | - | - | - |
| 1777685004 | 32.22° C | 84% | 1011.3 hPa | - | - | - | - |
* Rain since midnight (hover to see other rain measurements)
** Current wind speed in m/s (hover to see current wind gust speed)